Theta_e
332 331 333 333 332 334 335 337 336 337 337 334 332 333 333 333 330 327 326 326 325 324 325 322 321 320 318 318 318 318 318 318 321 319 317 319 320 318 317 319 319 323 324
331 331 331 332 331 332 335 335 336 337 337 337 335 335 335 330 327 328 327 326 325 324 323 322 320 319 316 317 317 317 316 316 318 314 314 309 312 314 318 319 318 322 323
329 331 332 331 332 332 333 335 337 339 339 337 334 333 327 326 325 324 324 326 324 323 323 321 320 319 318 314 315 315 316 313 316 318 312 307 305 309 314 316 320 318 324
329 329 330 331 331 332 333 336 338 338 337 332 331 327 323 321 323 322 323 323 323 321 320 320 320 319 317 316 314 313 314 314 310 313 314 315 312 305 305 313 316 317 318
329 329 329 330 331 332 332 335 337 334 332 329 327 325 325 324 322 321 322 322 321 321 319 319 317 316 314 314 314 313 313 313 311 311 309 311 311 310 306 305 309 317 317
327 329 330 331 332 332 332 334 335 334 330 327 326 326 324 322 320 320 318 317 317 317 316 315 315 315 314 313 312 313 313 312 310 309 309 308 307 308 307 307 308 309 313
326 328 329 330 331 330 330 332 330 330 326 323 322 320 322 322 320 319 317 316 313 311 313 315 313 312 313 313 314 313 313 311 308 308 307 309 308 310 310 306 306 306 311
326 328 329 329 328 329 327 326 324 323 321 319 319 322 321 320 319 318 317 314 311 311 314 312 312 312 312 312 312 312 312 310 308 307 307 307 307 309 308 307 305 302 305
326 327 328 327 326 324 323 325 322 320 318 318 322 322 322 320 319 319 317 313 314 312 312 312 311 311 312 312 311 310 310 309 309 310 308 307 308 308 308 308 308 305 300
323 324 326 325 324 321 320 319 318 318 317 319 320 319 320 319 318 317 315 314 313 314 312 311 310 312 313 311 310 311 311 308 308 308 307 308 308 308 308 308 308 307 305
318 320 323 322 320 318 317 318 317 315 317 318 318 318 318 317 316 314 313 313 314 314 310 309 309 310 310 310 310 310 309 307 308 309 307 307 307 307 308 308 308 308 308
314 316 318 321 319 319 318 316 317 315 316 317 317 317 316 315 313 313 313 314 314 312 309 309 309 309 310 310 309 310 310 307 306 307 306 306 309 311 313 308 308 309 310
313 314 316 317 318 318 317 315 315 315 316 316 315 315 313 312 311 312 313 313 311 310 309 308 308 310 309 309 310 309 308 309 308 310 310 311 311 309 311 312 310 309 311
313 314 316 316 316 317 316 315 315 315 316 313 312 312 312 311 311 312 313 312 310 308 308 308 309 310 309 309 309 309 309 310 310 311 311 309 309 308 311 311 312 310 309
312 314 316 317 316 316 315 314 315 316 312 312 312 311 310 310 311 312 313 310 310 307 308 310 309 310 309 310 309 309 311 310 308 306 308 311 312 312 312 314 313 308 305
312 314 316 316 315 316 315 314 313 311 314 312 310 309 309 309 311 312 309 308 307 307 308 309 309 309 309 304 305 307 310 307 304 305 308 310 308 313 312 313 311 310 305
314 315 316 317 318 316 313 314 312 313 310 310 308 308 308 309 311 309 307 306 305 305 308 309 309 308 310 302 302 304 311 306 306 307 308 308 308 312 311 309 309 308 307
315 317 318 319 318 315 314 313 312 310 309 308 307 308 308 309 309 306 305 305 308 307 306 309 308 307 308 299 298 301 313 309 310 310 310 311 309 313 311 309 307 307 307
318 318 320 318 316 314 313 313 311 309 308 307 307 307 308 308 305 303 303 304 306 306 307 308 306 309 310 298 298 304 311 311 311 310 307 313 316 304 306 311 308 307 307
320 319 320 317 315 312 313 311 309 308 307 306 307 309 309 304 304 305 303 303 304 305 307 305 306 303 306 300 298 305 309 309 312 313 312 300 309 301 304 314 310 308 307
319 320 320 316 313 313 312 307 308 307 307 308 308 310 305 304 305 305 304 303 303 305 307 307 306 306 305 307 298 300 311 306 310 308 309 310 298 300 301 306 315 311 309
318 320 318 314 312 311 310 308 307 307 307 308 309 306 307 305 306 304 304 305 304 304 304 305 303 304 307 299 297 296 298 303 311 306 308 305 296 297 299 306 299 300 306
317 319 316 312 310 310 310 308 307 307 308 309 308 307 308 306 307 304 304 302 305 303 304 305 302 303 306 305 297 297 298 301 307 305 300 298 298 298 300 299 300 304 311
316 318 316 312 309 309 309 308 308 308 309 309 308 307 306 307 307 305 304 302 302 306 306 305 302 304 305 307 310 312 311 305 309 308 307 303 303 302 306 310 310 313 312
317 318 314 312 309 309 309 308 308 309 309 309 307 303 303 304 305 304 299 301 300 300 307 306 307 305 303 303 299 303 310 311 306 310 312 309 308 308 310 311 311 311 311
317 316 312 310 309 309 308 308 309 310 310 308 304 303 304 304 306 308 307 293 293 292 292 293 300 307 296 295 295 293 294 296 300 311 310 308 308 307 308 309 309 310 308
Wind_Speed
6 6 5 3 3 4 5 6 7 7 6 4 4 4 4 4 4 3 3 2 3 4 4 5 7 8 8 9 11 11 11 9 6 8 8 7 7 8 10 7 7 7 6
8 9 8 4 4 4 5 7 8 8 8 5 2 3 2 2 2 1 2 2 3 4 5 6 8 8 8 9 10 10 9 9 7 7 7 8 7 7 4 6 6 6 6
11 11 10 9 5 5 4 6 7 9 6 4 1 2 4 3 2 2 3 2 5 5 6 8 8 8 8 9 10 11 12 10 8 7 6 6 8 7 4 4 3 7 6
9 9 7 7 6 6 3 6 7 7 4 2 2 3 4 5 4 5 5 5 5 7 7 8 9 9 9 10 11 8 8 6 7 4 5 5 5 5 6 3 3 3 4
8 8 4 5 5 5 6 5 4 2 1 3 2 4 5 4 5 5 6 6 6 7 8 10 12 11 9 10 10 9 8 5 5 4 2 2 4 5 6 9 5 1 3
5 5 4 4 6 6 6 4 4 3 3 3 3 4 5 6 6 7 7 7 7 8 11 12 11 10 8 8 8 8 8 5 3 3 4 5 4 3 4 6 8 7 4
5 5 5 6 5 4 4 3 3 3 2 3 3 4 5 5 6 7 7 9 9 10 10 11 10 9 9 9 7 8 7 6 5 6 6 5 6 6 6 4 5 5 4
6 5 5 4 4 2 1 3 3 3 1 2 3 3 4 4 5 6 7 8 9 9 11 10 10 10 10 8 8 8 7 7 5 8 8 7 6 6 6 6 4 3 3
5 5 3 4 2 2 3 4 4 3 2 3 3 4 4 5 7 7 7 8 10 9 10 11 11 11 9 9 9 7 7 6 6 9 6 5 5 5 6 4 3 3 3
5 4 3 2 3 2 4 4 5 4 2 3 4 5 6 7 7 8 10 11 11 11 10 11 10 10 9 8 8 7 7 7 5 4 7 6 5 5 4 4 4 5 4
5 5 3 2 4 4 5 5 3 3 4 4 5 6 7 8 8 10 10 11 12 11 10 9 9 9 9 8 7 8 7 7 7 7 6 7 6 5 4 4 5 5 6
3 3 3 5 5 6 6 4 3 5 4 5 5 7 7 9 10 10 10 11 12 11 10 9 8 9 8 7 7 8 7 6 8 5 5 7 6 8 7 5 7 6 7
3 4 5 6 8 8 5 5 5 4 4 4 6 7 9 10 11 10 10 10 12 10 9 8 8 8 8 7 7 6 7 7 5 8 9 8 7 7 7 8 6 5 5
5 5 6 8 9 8 6 4 4 4 4 4 6 9 10 11 10 10 11 10 10 9 7 7 7 8 7 6 6 6 6 6 6 7 7 8 8 9 9 8 8 5 6
4 8 9 9 9 8 5 5 2 2 2 4 7 10 11 10 10 10 11 11 9 7 7 8 7 7 5 4 6 5 6 7 8 7 7 7 8 2 8 8 9 10 11
7 10 11 11 12 9 8 5 2 3 1 6 8 10 10 10 10 10 11 9 8 7 8 7 6 6 4 7 5 5 5 5 4 6 6 6 10 7 15 17 18 15 14
10 12 12 13 11 10 4 2 4 5 3 6 9 9 9 10 11 10 8 8 7 7 9 6 5 5 4 7 7 8 5 4 4 4 5 6 6 12 14 18 20 17 17
10 12 11 11 10 7 3 5 5 5 4 7 9 8 9 11 10 8 7 8 7 7 6 6 4 3 6 10 10 9 5 3 5 6 6 7 6 10 13 13 14 13 12
8 9 8 8 7 4 4 5 5 4 6 8 8 9 10 10 8 8 10 8 8 6 5 4 5 5 8 11 10 7 5 5 6 7 8 7 9 8 10 13 13 13 12
9 10 11 8 5 4 5 6 4 5 7 7 8 9 9 6 9 10 8 7 6 5 2 5 6 7 6 9 8 5 3 4 5 7 7 11 7 7 8 14 11 12 12
9 10 10 7 4 5 5 5 4 6 6 6 7 8 6 7 9 8 7 6 5 4 6 7 7 7 8 8 8 8 4 4 4 5 4 6 6 7 9 9 9 13 11
12 13 11 7 4 5 4 4 5 5 5 6 6 7 7 8 7 8 7 7 5 6 6 6 5 6 7 11 11 10 8 5 7 5 5 5 7 8 9 8 14 14 12
13 12 9 3 5 5 4 4 5 5 5 6 7 4 8 7 8 7 8 5 5 4 5 5 4 5 5 5 9 9 8 12 8 5 6 10 12 13 12 13 12 10 9
12 11 9 2 5 5 4 4 4 5 5 6 6 6 7 7 7 6 6 5 4 5 5 5 4 4 5 5 5 6 5 7 7 8 8 9 10 11 9 8 7 6 7
13 11 8 2 6 5 4 4 5 4 5 6 6 5 4 5 5 6 6 4 4 3 4 4 4 4 5 5 5 7 5 4 4 5 5 5 6 6 7 7 7 7 8
13 11 5 5 7 5 4 4 4 4 5 5 4 4 3 3 3 3 5 6 4 3 3 2 4 4 4 5 6 6 5 5 4 5 5 6 6 6 6 7 7 8 8
Wind_Direction
191 174 180 171 161 175 193 197 188 181 185 187 213 229 233 226 245 231 247 278 345 352 337 322 319 318 314 320 314 307 306 306 301 279 259 262 255 284 301 290 299 271 289
231 220 219 205 177 184 196 198 208 199 210 219 220 288 271 254 302 306 331 323 322 334 310 311 317 313 309 314 321 308 301 292 286 292 295 278 274 281 303 293 294 311 296
250 246 233 234 232 225 216 215 218 220 224 242 258 282 248 226 275 349 328 332 323 323 317 314 312 302 294 305 315 311 298 290 284 270 284 283 283 325 290 307 305 342 337
253 249 260 262 261 263 253 237 232 229 200 138 275 324 322 314 342 315 318 323 336 329 320 311 311 309 302 299 301 301 289 273 274 309 256 250 282 300 294 284 303 360 3
263 286 282 268 269 267 257 260 253 239 221 319 354 322 306 314 318 308 319 322 315 317 318 319 316 310 302 304 300 294 287 256 264 262 306 265 259 253 267 288 301 317 29
268 270 274 268 268 267 265 265 248 259 334 338 340 314 312 315 316 332 318 319 318 323 321 315 307 302 297 290 291 291 283 271 270 266 244 255 270 283 246 276 282 292 308
263 259 260 251 263 286 287 261 240 263 303 317 316 309 306 316 312 313 317 319 319 319 312 309 307 300 293 290 287 285 275 253 251 260 274 267 251 263 254 233 263 276 301
264 267 270 285 303 327 266 201 201 233 253 255 296 313 313 304 302 307 313 310 315 311 310 300 298 296 293 290 292 285 282 271 266 271 261 254 244 242 237 241 207 195 246
267 264 262 258 239 303 278 239 216 217 230 304 300 304 309 311 312 306 308 305 307 307 297 304 300 297 292 298 301 293 287 290 282 273 254 251 250 247 244 226 206 172 195
252 262 272 265 236 210 193 196 201 216 249 315 325 326 324 314 305 300 297 305 304 302 305 309 305 309 309 307 294 298 295 286 273 258 253 257 253 254 237 225 201 204 215
256 265 272 234 231 224 228 221 232 301 310 318 327 323 319 309 302 298 303 306 306 309 310 303 306 308 305 302 299 296 293 295 282 280 254 266 258 251 233 210 200 207 211
314 291 263 238 242 241 238 242 272 273 315 339 332 314 312 311 306 303 305 312 313 316 305 301 302 301 301 302 307 313 315 312 289 275 268 272 266 245 232 205 212 209 220
276 259 238 241 246 246 247 246 253 300 344 333 315 313 315 316 313 309 313 314 320 313 303 300 299 313 307 311 306 315 315 300 317 305 300 286 273 261 239 214 205 196 200
274 262 250 252 258 260 255 270 294 349 354 341 311 318 320 316 314 316 313 315 316 309 300 301 304 312 314 312 324 324 321 319 304 306 298 286 261 258 256 234 221 209 156
263 250 257 267 276 288 295 263 290 327 50 318 320 317 315 318 320 320 321 320 316 301 297 309 308 317 316 329 340 323 336 340 345 321 305 298 307 313 274 179 177 131 123
266 263 273 309 320 307 272 266 226 104 23 335 318 316 322 326 326 324 332 321 312 308 307 315 320 329 322 359 355 340 336 357 327 322 326 352 351 17 100 106 121 134 128
334 333 323 310 306 292 291 261 115 101 20 322 321 326 330 327 328 336 325 316 315 315 320 314 358 357 17 10 360 349 349 350 331 341 348 28 9 62 91 92 97 99 105
341 338 337 330 325 336 53 101 102 72 355 325 334 337 334 332 339 332 322 314 317 325 323 21 23 22 53 15 0 338 16 33 28 34 21 37 49 79 91 94 101 102 105
345 338 335 322 347 28 127 113 80 31 342 346 346 345 339 342 337 338 335 336 333 333 17 29 41 23 32 14 2 360 43 49 44 57 34 52 88 71 103 100 105 100 94
2 343 330 342 4 72 103 92 57 1 358 2 349 348 357 352 344 347 334 330 324 335 32 64 46 34 10 23 10 18 38 37 48 60 64 43 76 94 85 120 118 112 113
338 329 337 358 41 123 125 92 34 19 13 355 355 4 15 358 355 350 349 331 336 43 61 59 43 26 25 33 37 37 41 33 54 54 59 70 38 95 92 113 126 124 118
348 345 352 12 85 124 113 74 42 30 16 7 9 31 15 14 11 4 2 18 23 56 59 59 34 28 42 35 43 43 39 16 70 65 63 64 66 82 91 104 105 108 112
350 355 356 27 123 126 92 57 51 32 20 17 33 35 35 28 27 18 29 30 38 50 60 60 35 36 41 62 57 34 30 49 73 71 82 84 81 85 85 103 112 122 122
347 353 347 17 133 131 96 60 48 33 23 30 50 42 38 30 27 19 40 45 37 52 65 61 41 40 49 45 52 74 70 67 69 69 69 79 79 75 87 98 91 98 107
350 351 350 72 129 131 102 59 52 23 39 59 60 54 43 31 20 61 24 21 39 1 48 53 47 42 50 34 20 36 75 64 47 81 82 78 73 77 83 79 96 106 107
349 348 15 124 129 130 106 68 57 36 40 72 64 48 49 38 5 45 86 70 23 347 53 9 347 106 41 53 56 43 33 36 94 99 84 78 81 84 99 106 98 100 102